Left ArrowRight Arrow

39.95238, -75.16362

Hourly Observations for June 14, 2024

Temp ( °F °C ) Dew Point ( °F °C ) Humidity (%) Winds ( mph kmh ) Pressure ( in mb ) Visibility ( mi km ) Precip ( " mm )
12:54 am 00:54 Mostly Clear 72 22.2 64 17.8 76 76 SSE 6 9 29.95 1014 10 16 0.00 0.00
1:54 am 01:54 Mostly Clear 71 21.7 63 17.2 76 76 S 7 11 29.93 1014 10 16 0.00 0.00
2:54 am 02:54 Mostly Cloudy 71 21.7 64 17.8 79 79 S 7 11 29.92 1013 10 16 0.00 0.00
3:54 am 03:54 Cloudy 72 22.2 63 17.2 73 73 S 8 13 29.91 1013 10 16 0.00 0.00
4:54 am 04:54 Mostly Cloudy 72 22.2 63 17.2 73 73 S 7 11 29.90 1013 10 16 0.00 0.00
5:54 am 05:54 Mostly Cloudy 72 22.2 64 17.8 76 76 S 8 13 29.89 1012 10 16 0.00 0.00
6:54 am 06:54 Partly Cloudy 73 22.8 66 18.9 79 79 S 8 13 29.89 1012 10 16 0.00 0.00
7:54 am 07:54 Mostly Sunny 75 23.9 67 19.4 76 76 SSW 12 19 29.90 1013 10 16 0.00 0.00
8:54 am 08:54 Partly Cloudy 78 25.6 67 19.4 69 69 SW 14 22 29.91 1013 10 16 0.00 0.00
9:54 am 09:54 Partly Cloudy 79 26.1 67 19.4 67 67 SW 8 13 29.90 1013 10 16 0.00 0.00
10:54 am 10:54 Partly Cloudy 82 27.8 67 19.4 60 60 WSW 9 15 29.90 1012 10 16 0.00 0.00
11:54 am 11:54 Partly Cloudy 84 28.9 67 19.4 57 57 S 8 13 29.89 1012 10 16 0.00 0.00
12:54 pm 12:54 Partly Cloudy 87 30.6 64 17.8 46 46 W 9 15 29.87 1011 10 16 0.00 0.00
1:54 pm 13:54 Mostly Cloudy 87 30.6 62 16.7 43 43 SSW 8 13 29.85 1011 10 16 0.00 0.00
2:54 pm 14:54 Mostly Cloudy 87 30.6 64 17.8 46 46 SSE 5 7 29.83 1010 10 16 0.00 0.00
3:54 pm 15:54 Mostly Cloudy 89 31.7 63 17.2 42 42 WSW 13 20 29.81 1010 10 16 0.00 0.00
4:54 pm 16:54 Mostly Cloudy with Nearby Thunderstorms 87 30.6 63 17.2 45 45 WSW 13 20 29.81 1010 10 16 0.00 0.00
5:11 pm 17:11 Mostly Cloudy with Nearby Thunderstorms 84 28.9 66 18.9 55 55 WNW 17 28 29.82 1010 10 16 0.01 0.13
5:27 pm 17:27 Mostly Cloudy with Light Rain 82 27.8 64 17.8 55 55 WNW 17 28 29.81 1009 10 16 0.01 0.13
5:54 pm 17:54 Mostly Cloudy with Rain 78 25.6 65 18.3 64 64 NW 18 30 29.83 1010 10 16 0.02 0.51
6:54 pm 18:54 Mostly Cloudy 70 21.1 60 15.6 71 71 N 15 24 29.87 1011 10 16 0.01 0.13
7:54 pm 19:54 Mostly Cloudy 71 21.7 60 15.6 68 68 NNE 10 17 29.86 1011 10 16 0.00 0.00
8:54 pm 20:54 Mostly Cloudy 70 21.1 60 15.6 71 71 ESE 5 7 29.87 1012 10 16 0.00 0.00
9:54 pm 21:54 Mostly Cloudy 70 21.1 61 16.1 73 73 E 6 9 29.89 1012 10 16 0.00 0.00
10:54 pm 22:54 Mostly Cloudy 71 21.7 59 15 66 66 Calm 29.89 1012 10 16 0.00 0.00
11:54 pm 23:54 Mostly Cloudy 71 21.7 61 16.1 70 70 S 3 6 29.89 1012 10 16 0.00 0.00

Powered by Vaisala Xweather